Fort Myers, FL

5:47 AM EST on February 25, 2017 (GMT -0500)
Southwest Florida International

Weather History for KRSW - July, 2013

Change the Weather History Date:

Tuesday, July 23, 2013

  Actual Average Record
Temperature  
Mean Temperature 82 °F -  
Max Temperature 89 °F 90 °F 95 °F (1937)
Min Temperature 77 °F 74 °F 70 °F (1938)
Cooling Degree Days 18    
Growing Degree Days 32 (Base 50)    
Moisture  
Dew Point 74 °F    
Average Humidity 77    
Maximum Humidity 96    
Minimum Humidity 57    
Precipitation  
Precipitation 0.00 in - - ()
Sea Level Pressure  
Sea Level Pressure 30.06 in    
Wind  
Wind Speed 3 mph (WSW)    
Max Wind Speed 10 mph    
Max Gust Speed 16 mph    
Visibility 10 miles    
Events      
Averages and records for this station are not official NWS values.
T = Trace of Precipitation, MM = Missing Value Source: NWS Daily Summary

Daily Weather History Graph

Daily Weather History Graph

Search for Another Location

Airport or City:

Trip Planner

Search our weather history database for the weather conditions in past years. The results will help you decide how hot, cold, wet, or windy it might be!

Date:

Astronomy

Jul. 23, 2013 Rise Set
Actual Time 6:47 AM EDT 8:19 PM EDT
Civil Twilight 6:22 AM EDT 8:44 PM EDT
Nautical Twilight 5:51 AM EDT 9:14 PM EDT
Astronomical Twilight 5:20 AM EDT 9:46 PM EDT
Moon 9:01 PM EDT (7/23) 7:43 AM EDT (7/23)
Length of Visible Light 14h 22m
Length of Day
13h 31m
Full, 99% of the Moon is Illuminated
Jul 23
Full
Jul 29
Last Quarter
Aug 6
New
Aug 14
First Quarter
Aug 20
Full

Hourly Weather History & Observations

Time (EDT) Temp. Heat Index Dew Point Humidity Pressure Visibility Wind Dir Wind Speed Gust Speed Precip Events Conditions
12:53 AM 79.0 °F - 75.9 °F 90% 30.11 in 10.0 mi Calm Calm - N/A   Clear
1:53 AM 79.0 °F - 75.0 °F 88% 30.10 in 10.0 mi Calm Calm - N/A   Partly Cloudy
2:53 AM 78.1 °F - 75.9 °F 93% 30.08 in 10.0 mi Calm Calm - N/A   Clear
3:53 AM 77.0 °F - 75.9 °F 96% 30.07 in 10.0 mi Calm Calm - N/A   Clear
4:53 AM 77.0 °F - 75.9 °F 96% 30.06 in 9.0 mi Calm Calm - N/A   Scattered Clouds
5:53 AM 77.0 °F - 75.9 °F 96% 30.07 in 8.0 mi Calm Calm - N/A   Partly Cloudy
6:53 AM 77.0 °F - 75.9 °F 96% 30.08 in 7.0 mi South 3.5 mph - N/A   Clear
7:53 AM 78.1 °F - 77.0 °F 96% 30.09 in 8.0 mi SSE 4.6 mph - N/A   Clear
8:53 AM 80.1 °F 85.4 °F 75.9 °F 87% 30.10 in 10.0 mi Calm Calm - N/A   Clear
9:53 AM 82.0 °F 88.6 °F 75.0 °F 79% 30.10 in 10.0 mi Calm Calm - N/A   Partly Cloudy
10:09 AM 82.4 °F 88.2 °F 73.4 °F 74% 30.11 in 10.0 mi SSW 4.6 mph - N/A   Mostly Cloudy
10:19 AM 82.4 °F 88.2 °F 73.4 °F 74% 30.11 in 10.0 mi SSW 4.6 mph - N/A   Scattered Clouds
10:53 AM 84.0 °F 90.2 °F 73.0 °F 69% 30.10 in 10.0 mi SSW 6.9 mph - N/A   Scattered Clouds
11:53 AM 86.0 °F 92.2 °F 72.0 °F 63% 30.09 in 10.0 mi WSW 8.1 mph - N/A   Scattered Clouds
12:53 PM 87.1 °F 92.8 °F 71.1 °F 59% 30.08 in 10.0 mi WSW 10.4 mph - N/A   Clear
1:53 PM 88.0 °F 93.8 °F 71.1 °F 57% 30.06 in 10.0 mi SW 9.2 mph - N/A   Clear
2:53 PM 88.0 °F 94.7 °F 72.0 °F 59% 30.04 in 10.0 mi WSW 9.2 mph - N/A   Partly Cloudy
3:53 PM 88.0 °F 94.7 °F 72.0 °F 59% 30.02 in 10.0 mi West 9.2 mph 16.1 mph N/A   Partly Cloudy
4:53 PM 87.1 °F 92.8 °F 71.1 °F 59% 30.01 in 10.0 mi Variable 5.8 mph - N/A   Scattered Clouds
5:53 PM 87.1 °F 92.8 °F 71.1 °F 59% 30.01 in 10.0 mi West 9.2 mph - N/A   Clear
6:53 PM 84.9 °F 90.1 °F 71.1 °F 63% 30.01 in 10.0 mi NW 8.1 mph - N/A   Partly Cloudy
7:53 PM 82.9 °F 87.5 °F 71.1 °F 67% 29.99 in 10.0 mi West 5.8 mph - N/A   Clear
8:53 PM 81.0 °F 85.8 °F 73.0 °F 77% 29.99 in 10.0 mi West 4.6 mph - N/A   Clear
9:53 PM 79.0 °F - 73.0 °F 82% 30.01 in 10.0 mi WSW 5.8 mph - N/A   Clear
10:53 PM 80.1 °F 84.2 °F 73.0 °F 79% 30.03 in 10.0 mi West 3.5 mph - N/A   Clear
11:53 PM 79.0 °F - 73.9 °F 84% 30.04 in 10.0 mi Calm Calm - N/A   Clear